This demonstration page uses our WeatherBlox Daily Observations layout. Learn more.

Left ArrowRight Arrow

41.55636, -103.73856

Hourly Observations for April 17, 2020

Temp ( °F °C ) Dew Point ( °F °C ) Humidity (%) Winds ( mph kmh ) Pressure ( in mb ) Visibility ( mi km ) Precip ( " mm )
6:58 pm 18:58 Mostly Cloudy 23 -4.9 21 -6.1 91 91 SSW 3 6 30.34 1027 10 16 0.00 0.00
7:58 pm 19:58 Mostly Clear 20 -6.5 19 -7.2 95 95 SW 5 7 30.37 1029 10 16 0.00 0.00
8:58 pm 20:58 Clear 17 -8.5 16 -9 96 96 SW 6 9 30.40 1029 10 16 0.00 0.00
9:58 pm 21:58 Clear 16 -8.9 14 -10 92 92 SW 3 6 30.40 1029 10 16 0.00 0.00
10:58 pm 22:58 Clear 14 -10.2 11 -11.7 89 89 WSW 6 9 30.40 1029 10 16 0.00 0.00
11:58 pm 23:58 Clear 13 -10.6 10 -12 90 90 SW 7 11 30.39 1029 10 16 0.00 0.00
12:58 am 00:58 Clear 12 -11 10 -12.5 89 89 SSW 12 19 30.37 1028 10 16 0.00 0.00
1:58 am 01:58 Clear 12 -11.1 8 -13.5 83 83 WSW 8 13 30.33 1027 10 16 0.00 0.00
2:58 am 02:58 Clear 10 -12 6 -14.5 82 82 SW 9 15 30.34 1027 10 16 0.00 0.00
3:58 am 03:58 Clear 9 -12.6 5 -14.9 83 83 Calm 30.34 1027 10 16 0.00 0.00
4:58 am 04:58 Clear 9 -12.6 7 -14 89 89 WNW 6 9 30.32 1027 10 16 0.00 0.00
5:58 am 05:58 Clear 8 -13.3 5 -14.8 89 89 W 5 7 30.32 1027 10 16 0.00 0.00
6:58 am 06:58 Sunny 6 -14.3 2 -16.5 84 84 SW 6 9 30.33 1027 10 16 0.00 0.00
7:58 am 07:58 Sunny 12 -11.1 7 -13.8 81 81 SW 7 11 30.33 1027 10 16 0.00 0.00
8:58 am 08:58 Sunny 20 -6.9 13 -10.7 75 75 Calm 30.29 1026 10 16 0.00 0.00
9:58 am 09:58 Sunny 27 -2.9 17 -8.5 66 66 SW 12 19 30.27 1025 10 16 0.00 0.00
10:58 am 10:58 Sunny 29 -1.5 19 -7.3 65 65 SW 12 19 30.26 1025 10 16 0.00 0.00
11:58 am 11:58 Sunny 33 0.6 20 -6.6 59 59 WNW 5 7 30.23 1024 10 16 0.00 0.00
12:58 pm 12:58 Sunny 38 3.2 24 -4.2 59 59 WNW 16 26 30.18 1022 10 16 0.00 0.00
1:58 pm 13:58 Sunny 40 4.7 25 -3.9 54 54 WNW 16 26 30.16 1021 10 16 0.00 0.00
2:58 pm 14:58 Sunny 44 6.4 25 -4 48 48 WNW 17 28 30.14 1021 10 16 0.00 0.00
3:58 pm 15:58 Sunny 47 8.1 23 -5.2 39 39 WNW 20 31 30.10 1019 10 16 0.00 0.00
4:58 pm 16:58 Sunny 48 8.9 20 -6.6 33 33 WNW 17 28 30.08 1019 10 16 0.00 0.00
5:58 pm 17:58 Sunny 48 9.1 28 -2 46 46 WSW 18 30 30.06 1018 10 16 0.00 0.00

Powered by AerisWeather